Time,TemperatureF,DewpointF,PressureIn,WindDirection,WindDirectionDegrees,WindSpeedMPH,WindSpeedGustMPH,Humidity,HourlyPrecipIn,Conditions,Clouds,dailyrainin,SoftwareType,DateUTC
2013-04-26 00:01:00,68.9,47.3,30.21,ENE,67,0.0,0.0,46,0.00,,---,0.00,VWS V14.01,2013-04-26 04:01:00,
2013-04-26 00:06:00,68.7,47.1,30.21,ENE,67,0.0,0.0,46,0.00,,---,0.00,VWS V14.01,2013-04-26 04:06:00,
2013-04-26 00:11:00,68.5,47.0,30.21,ENE,67,0.0,0.0,46,0.00,,---,0.00,VWS V14.01,2013-04-26 04:11:00,
2013-04-26 00:16:00,68.2,46.6,30.21,ENE,67,0.0,0.0,46,0.00,,---,0.00,VWS V14.01,2013-04-26 04:16:00,
2013-04-26 00:21:00,68.0,47.0,30.21,ENE,67,0.0,0.0,47,0.00,,---,0.00,VWS V14.01,2013-04-26 04:21:00,
2013-04-26 00:26:00,67.8,46.9,30.21,ENE,67,0.0,0.0,47,0.00,,---,0.00,VWS V14.01,2013-04-26 04:26:00,
2013-04-26 00:31:00,67.5,47.1,30.21,ENE,67,0.0,0.0,48,0.00,,---,0.00,VWS V14.01,2013-04-26 04:31:00,
2013-04-26 00:36:00,67.3,46.9,30.21,ENE,67,0.0,0.0,48,0.00,,---,0.00,VWS V14.01,2013-04-26 04:36:00,
2013-04-26 00:41:00,67.1,47.3,30.21,ENE,67,0.0,0.0,49,0.00,,---,0.00,VWS V14.01,2013-04-26 04:41:00,
2013-04-26 00:46:00,66.9,47.2,30.21,ENE,67,0.0,0.0,49,0.00,,---,0.00,VWS V14.01,2013-04-26 04:46:00,
2013-04-26 00:51:00,66.6,47.4,30.21,ENE,67,0.0,0.0,50,0.00,,---,0.00,VWS V14.01,2013-04-26 04:51:00,
2013-04-26 00:56:00,66.4,47.2,30.21,ENE,67,0.0,0.0,50,0.00,,---,0.00,VWS V14.01,2013-04-26 04:56:00,
2013-04-26 01:01:00,66.2,47.6,30.18,ENE,67,0.0,0.0,51,0.00,,---,0.00,VWS V14.01,2013-04-26 05:01:00,
2013-04-26 01:06:00,66.0,47.9,30.18,ENE,67,0.0,0.0,52,0.00,,---,0.00,VWS V14.01,2013-04-26 05:06:00,
2013-04-26 01:11:00,65.8,47.7,30.18,ENE,67,0.0,0.0,52,0.00,,---,0.00,VWS V14.01,2013-04-26 05:11:00,
2013-04-26 01:16:00,65.8,48.2,30.21,ENE,67,0.0,0.0,53,0.00,,---,0.00,VWS V14.01,2013-04-26 05:16:00,
2013-04-26 01:21:00,65.7,48.1,30.21,ENE,67,0.0,0.0,53,0.00,,---,0.00,VWS V14.01,2013-04-26 05:21:00,
2013-04-26 01:26:00,65.5,47.9,30.21,ENE,67,0.0,0.0,53,0.00,,---,0.00,VWS V14.01,2013-04-26 05:26:00,
2013-04-26 01:31:00,65.3,47.8,30.18,ENE,67,0.0,0.0,53,0.00,,---,0.00,VWS V14.01,2013-04-26 05:31:00,
2013-04-26 01:36:00,65.3,47.8,30.18,ENE,67,0.0,0.0,53,0.00,,---,0.00,VWS V14.01,2013-04-26 05:36:00,
2013-04-26 01:41:00,65.1,47.6,30.18,ENE,67,0.0,0.0,53,0.00,,---,0.00,VWS V14.01,2013-04-26 05:41:00,
2013-04-26 01:46:00,64.9,47.4,30.18,ENE,67,0.0,0.0,53,0.00,,---,0.00,VWS V14.01,2013-04-26 05:46:00,
2013-04-26 01:51:00,64.8,47.8,30.18,ENE,67,0.0,0.0,54,0.00,,---,0.00,VWS V14.01,2013-04-26 05:51:00,
2013-04-26 01:56:00,64.6,47.6,30.18,ENE,67,0.0,0.0,54,0.00,,---,0.00,VWS V14.01,2013-04-26 05:56:00,
2013-04-26 02:01:00,64.6,47.6,30.18,ENE,67,0.0,0.0,54,0.00,,---,0.00,VWS V14.01,2013-04-26 06:01:00,
2013-04-26 02:06:00,64.4,47.4,30.18,ENE,67,0.0,0.0,54,0.00,,---,0.00,VWS V14.01,2013-04-26 06:06:00,
2013-04-26 02:11:00,64.4,47.4,30.18,ENE,67,0.0,0.0,54,0.00,,---,0.00,VWS V14.01,2013-04-26 06:11:00,
2013-04-26 02:16:00,64.2,47.7,30.18,ENE,67,0.0,0.0,55,0.00,,---,0.00,VWS V14.01,2013-04-26 06:16:00,
2013-04-26 02:21:00,64.0,47.6,30.18,ENE,67,0.0,0.0,55,0.00,,---,0.00,VWS V14.01,2013-04-26 06:21:00,
2013-04-26 02:26:00,64.0,47.6,30.18,ENE,67,0.0,0.0,55,0.00,,---,0.00,VWS V14.01,2013-04-26 06:26:00,
2013-04-26 02:31:00,64.0,47.6,30.18,ENE,67,0.0,0.0,55,0.00,,---,0.00,VWS V14.01,2013-04-26 06:31:00,
2013-04-26 02:36:00,63.9,47.4,30.18,ENE,67,0.0,0.0,55,0.00,,---,0.00,VWS V14.01,2013-04-26 06:36:00,
2013-04-26 02:41:00,63.9,47.9,30.18,ENE,67,0.0,0.0,56,0.00,,---,0.00,VWS V14.01,2013-04-26 06:41:00,
2013-04-26 02:46:00,63.9,47.9,30.18,ENE,67,0.0,0.0,56,0.00,,---,0.00,VWS V14.01,2013-04-26 06:46:00,
2013-04-26 02:51:00,63.9,47.9,30.18,ENE,67,0.0,0.0,56,0.00,,---,0.00,VWS V14.01,2013-04-26 06:51:00,
2013-04-26 02:56:00,63.9,47.9,30.18,ENE,67,0.0,0.0,56,0.00,,---,0.00,VWS V14.01,2013-04-26 06:56:00,
2013-04-26 03:01:00,64.0,48.5,30.15,ENE,67,0.0,0.0,57,0.00,,---,0.00,VWS V14.01,2013-04-26 07:01:00,
2013-04-26 03:06:00,64.0,48.5,30.15,ENE,67,0.0,0.0,57,0.00,,---,0.00,VWS V14.01,2013-04-26 07:06:00,
2013-04-26 03:11:00,64.2,48.7,30.15,ENE,67,0.0,0.0,57,0.00,,---,0.00,VWS V14.01,2013-04-26 07:11:00,
2013-04-26 03:16:00,64.2,48.7,30.15,ENE,67,0.0,0.0,57,0.00,,---,0.00,VWS V14.01,2013-04-26 07:16:00,
2013-04-26 03:21:00,64.2,49.2,30.15,ENE,67,0.0,0.0,58,0.00,,---,0.00,VWS V14.01,2013-04-26 07:21:00,
2013-04-26 03:26:00,64.4,49.3,30.15,ENE,67,0.0,0.0,58,0.00,,---,0.00,VWS V14.01,2013-04-26 07:26:00,
2013-04-26 03:31:00,64.4,49.3,30.15,ENE,67,0.0,0.0,58,0.00,,---,0.00,VWS V14.01,2013-04-26 07:31:00,
2013-04-26 03:36:00,64.6,49.5,30.15,ENE,67,0.0,0.0,58,0.00,,---,0.00,VWS V14.01,2013-04-26 07:36:00,
2013-04-26 03:41:00,64.6,49.5,30.15,ENE,67,0.0,0.0,58,0.00,,---,0.00,VWS V14.01,2013-04-26 07:41:00,
2013-04-26 03:46:00,64.8,49.7,30.15,ENE,67,0.0,0.0,58,0.00,,---,0.00,VWS V14.01,2013-04-26 07:46:00,
2013-04-26 03:51:00,64.6,49.5,30.15,ENE,67,0.0,0.0,58,0.00,,---,0.00,VWS V14.01,2013-04-26 07:51:00,
2013-04-26 03:56:00,64.6,49.5,30.15,ENE,67,0.0,0.0,58,0.00,,---,0.00,VWS V14.01,2013-04-26 07:56:00,
2013-04-26 04:01:00,64.4,49.8,30.15,ENE,67,0.0,0.0,59,0.00,,---,0.00,VWS V14.01,2013-04-26 08:01:00,
2013-04-26 04:06:00,64.4,49.8,30.15,ENE,67,0.0,0.0,59,0.00,,---,0.00,VWS V14.01,2013-04-26 08:06:00,
2013-04-26 04:11:00,64.2,49.6,30.15,ENE,67,0.0,0.0,59,0.00,,---,0.00,VWS V14.01,2013-04-26 08:11:00,
2013-04-26 04:16:00,64.0,49.4,30.15,ENE,67,0.0,0.0,59,0.00,,---,0.00,VWS V14.01,2013-04-26 08:16:00,
2013-04-26 04:21:00,63.9,49.7,30.15,ENE,67,0.0,0.0,60,0.00,,---,0.00,VWS V14.01,2013-04-26 08:21:00,
2013-04-26 04:26:00,63.7,49.5,30.15,ENE,67,0.0,0.0,60,0.00,,---,0.00,VWS V14.01,2013-04-26 08:26:00,
2013-04-26 04:31:00,63.5,49.4,30.15,ENE,67,0.0,0.0,60,0.00,,---,0.00,VWS V14.01,2013-04-26 08:31:00,
2013-04-26 04:36:00,63.1,49.0,30.15,ENE,67,0.0,0.0,60,0.00,,---,0.00,VWS V14.01,2013-04-26 08:36:00,
2013-04-26 04:41:00,63.0,48.9,30.15,ENE,67,0.0,0.0,60,0.00,,---,0.00,VWS V14.01,2013-04-26 08:41:00,
2013-04-26 04:46:00,63.0,48.9,30.15,ENE,67,0.0,0.0,60,0.00,,---,0.00,VWS V14.01,2013-04-26 08:46:00,
2013-04-26 04:51:00,62.8,48.7,30.15,ENE,67,0.0,0.0,60,0.00,,---,0.00,VWS V14.01,2013-04-26 08:51:00,
2013-04-26 04:56:00,62.6,48.5,30.15,ENE,67,0.0,0.0,60,0.00,,---,0.00,VWS V14.01,2013-04-26 08:56:00,
2013-04-26 05:01:00,62.2,48.6,30.15,ENE,67,0.0,0.0,61,0.00,,---,1.26,VWS V14.01,2013-04-26 09:01:00,
2013-04-26 05:06:00,62.2,48.6,30.15,ENE,67,0.0,0.0,61,0.00,,---,0.00,VWS V14.01,2013-04-26 09:06:00,
2013-04-26 05:11:00,61.9,48.3,30.15,ENE,67,0.0,0.0,61,0.00,,---,0.00,VWS V14.01,2013-04-26 09:11:00,
2013-04-26 05:16:00,61.9,48.3,30.15,ENE,67,0.0,0.0,61,0.00,,---,0.00,VWS V14.01,2013-04-26 09:16:00,
2013-04-26 05:21:00,61.7,48.6,30.15,ENE,67,0.0,0.0,62,0.00,,---,0.00,VWS V14.01,2013-04-26 09:21:00,
2013-04-26 05:26:00,61.7,48.6,30.15,ENE,67,0.0,0.0,62,0.00,,---,0.00,VWS V14.01,2013-04-26 09:26:00,
2013-04-26 05:31:00,61.5,48.4,30.15,ENE,67,0.0,0.0,62,0.00,,---,0.00,VWS V14.01,2013-04-26 09:31:00,
2013-04-26 05:36:00,61.3,48.2,30.15,ENE,67,0.0,0.0,62,0.00,,---,0.00,VWS V14.01,2013-04-26 09:36:00,
2013-04-26 05:41:00,61.3,48.7,30.15,ENE,67,0.0,0.0,63,0.00,,---,0.00,VWS V14.01,2013-04-26 09:41:00,
2013-04-26 05:46:00,61.2,48.5,30.15,ENE,67,0.0,0.0,63,0.00,,---,0.00,VWS V14.01,2013-04-26 09:46:00,
2013-04-26 05:51:00,61.0,48.3,30.15,ENE,67,0.0,0.0,63,0.00,,---,0.00,VWS V14.01,2013-04-26 09:51:00,
2013-04-26 05:56:00,61.0,48.3,30.15,ENE,67,0.0,0.0,63,0.00,,---,0.00,VWS V14.01,2013-04-26 09:56:00,
2013-04-26 06:01:00,60.8,48.1,30.15,ENE,67,0.0,0.0,63,0.00,,---,0.00,VWS V14.01,2013-04-26 10:01:00,
2013-04-26 06:06:00,60.6,48.4,30.15,ENE,67,0.0,0.0,64,0.00,,---,0.00,VWS V14.01,2013-04-26 10:06:00,
2013-04-26 06:11:00,60.6,48.4,30.15,ENE,67,0.0,0.0,64,0.00,,---,0.00,VWS V14.01,2013-04-26 10:11:00,
2013-04-26 06:16:00,60.4,48.2,30.15,ENE,67,0.0,0.0,64,0.00,,---,0.00,VWS V14.01,2013-04-26 10:16:00,
2013-04-26 06:21:00,60.3,48.0,30.15,ENE,67,0.0,0.0,64,0.00,,---,0.00,VWS V14.01,2013-04-26 10:21:00,
2013-04-26 06:26:00,60.1,47.9,30.15,ENE,67,0.0,0.0,64,0.00,,---,0.00,VWS V14.01,2013-04-26 10:26:00,
2013-04-26 06:31:00,59.9,47.7,30.15,ENE,67,0.0,0.0,64,0.00,,---,0.00,VWS V14.01,2013-04-26 10:31:00,
2013-04-26 06:36:00,59.9,47.7,30.15,ENE,67,0.0,0.0,64,0.00,,---,0.00,VWS V14.01,2013-04-26 10:36:00,
2013-04-26 06:41:00,59.7,47.5,30.15,ENE,67,0.0,0.0,64,0.00,,---,0.00,VWS V14.01,2013-04-26 10:41:00,
2013-04-26 06:46:00,59.5,47.4,30.15,ENE,67,0.0,0.0,64,0.00,,---,0.00,VWS V14.01,2013-04-26 10:46:00,
2013-04-26 06:51:00,59.4,47.2,30.15,ENE,67,0.0,0.0,64,0.00,,---,0.00,VWS V14.01,2013-04-26 10:51:00,
2013-04-26 06:56:00,59.4,47.6,30.15,ENE,67,0.0,0.0,65,0.00,,---,0.00,VWS V14.01,2013-04-26 10:56:00,
2013-04-26 07:01:00,59.2,47.4,30.18,ENE,67,0.0,0.0,65,0.00,,---,0.00,VWS V14.01,2013-04-26 11:01:00,
2013-04-26 07:06:00,59.2,47.4,30.18,ENE,67,0.0,0.0,65,0.00,,---,0.00,VWS V14.01,2013-04-26 11:06:00,
2013-04-26 07:11:00,59.2,47.4,30.18,ENE,67,0.0,0.0,65,0.00,,---,0.00,VWS V14.01,2013-04-26 11:11:00,
2013-04-26 07:16:00,59.0,47.3,30.18,WNW,299,0.0,0.0,65,0.00,,---,0.00,VWS V14.01,2013-04-26 11:16:00,
2013-04-26 07:21:00,59.0,47.3,30.18,WNW,299,0.0,0.0,65,0.00,,---,0.00,VWS V14.01,2013-04-26 11:21:00,
2013-04-26 07:26:00,59.2,47.8,30.18,WNW,299,0.0,0.0,66,0.00,,---,0.00,VWS V14.01,2013-04-26 11:26:00,
2013-04-26 07:31:00,59.2,47.8,30.18,WNW,299,0.0,0.0,66,0.00,,---,0.00,VWS V14.01,2013-04-26 11:31:00,
2013-04-26 07:36:00,59.2,47.8,30.18,WNW,299,0.0,0.0,66,0.00,,---,0.00,VWS V14.01,2013-04-26 11:36:00,
2013-04-26 07:41:00,59.4,48.0,30.18,NW,312,0.0,0.0,66,0.00,,---,0.00,VWS V14.01,2013-04-26 11:41:00,
2013-04-26 07:46:00,59.5,48.2,30.18,North,349,0.0,0.0,66,0.00,,---,0.00,VWS V14.01,2013-04-26 11:46:00,
2013-04-26 07:51:00,59.9,48.9,30.18,North,357,0.0,0.0,67,0.00,,---,0.00,VWS V14.01,2013-04-26 11:51:00,
2013-04-26 07:56:00,60.3,49.3,30.18,NE,56,0.0,0.0,67,0.00,,---,0.00,VWS V14.01,2013-04-26 11:56:00,
2013-04-26 08:01:00,60.6,50.0,30.18,North,4,0.0,0.0,68,0.00,,---,0.00,VWS V14.01,2013-04-26 12:01:00,
2013-04-26 08:06:00,61.2,50.5,30.18,North,5,0.0,0.0,68,0.00,,---,0.00,VWS V14.01,2013-04-26 12:06:00,
2013-04-26 08:11:00,61.9,51.2,30.18,NE,52,0.0,0.0,68,0.00,,---,0.00,VWS V14.01,2013-04-26 12:11:00,
2013-04-26 08:16:00,63.0,51.4,30.21,NNE,13,0.0,0.0,66,0.00,,---,0.00,VWS V14.01,2013-04-26 12:16:00,
2013-04-26 08:21:00,63.7,52.1,30.21,North,0,2.7,2.7,66,0.00,,---,0.00,VWS V14.01,2013-04-26 12:21:00,
2013-04-26 08:26:00,64.2,51.8,30.21,South,186,0.0,0.0,64,0.00,,---,0.00,VWS V14.01,2013-04-26 12:26:00,
2013-04-26 08:31:00,64.8,52.3,30.21,East,97,0.0,0.0,64,0.00,,---,0.00,VWS V14.01,2013-04-26 12:31:00,
2013-04-26 08:36:00,65.3,52.4,30.21,NE,55,0.0,0.0,63,0.00,,---,0.00,VWS V14.01,2013-04-26 12:36:00,
2013-04-26 08:41:00,65.8,52.9,30.21,North,357,0.0,0.0,63,0.00,,---,0.00,VWS V14.01,2013-04-26 12:41:00,
2013-04-26 08:46:00,66.2,51.9,30.21,NNE,20,3.6,3.6,60,0.00,,---,0.00,VWS V14.01,2013-04-26 12:46:00,
2013-04-26 08:51:00,66.9,51.7,30.21,NE,50,0.0,0.0,58,0.00,,---,0.00,VWS V14.01,2013-04-26 12:51:00,
2013-04-26 08:56:00,67.5,51.7,30.21,ENE,68,3.1,3.1,57,0.00,,---,0.00,VWS V14.01,2013-04-26 12:56:00,
2013-04-26 09:01:00,68.0,51.7,30.21,NNE,20,0.0,2.7,56,0.00,,---,0.00,VWS V14.01,2013-04-26 13:01:00,
2013-04-26 09:06:00,68.5,52.2,30.21,NE,40,0.0,0.0,56,0.00,,---,0.00,VWS V14.01,2013-04-26 13:06:00,
2013-04-26 09:11:00,68.9,51.6,30.21,ENE,73,3.1,3.1,54,0.00,,---,0.00,VWS V14.01,2013-04-26 13:11:00,
2013-04-26 09:16:00,69.4,52.6,30.21,East,82,0.0,0.0,55,0.00,,---,0.00,VWS V14.01,2013-04-26 13:16:00,
2013-04-26 09:21:00,69.8,52.9,30.21,NE,47,0.0,4.9,55,0.00,,---,0.00,VWS V14.01,2013-04-26 13:21:00,
2013-04-26 09:26:00,70.3,52.4,30.21,SE,135,0.0,4.0,53,0.00,,---,0.00,VWS V14.01,2013-04-26 13:26:00,
2013-04-26 09:31:00,70.5,52.6,30.21,ENE,59,0.0,0.0,53,0.00,,---,0.00,VWS V14.01,2013-04-26 13:31:00,
2013-04-26 09:36:00,70.7,52.2,30.21,NE,45,0.0,2.7,52,0.00,,---,0.00,VWS V14.01,2013-04-26 13:36:00,
2013-04-26 09:41:00,71.1,53.1,30.21,WNW,302,0.0,0.0,53,0.00,,---,0.00,VWS V14.01,2013-04-26 13:41:00,
2013-04-26 09:46:00,71.4,52.9,30.21,ENE,62,0.0,0.0,52,0.00,,---,0.00,VWS V14.01,2013-04-26 13:46:00,
2013-04-26 09:51:00,71.8,53.2,30.21,North,0,3.6,3.6,52,0.00,,---,0.00,VWS V14.01,2013-04-26 13:51:00,
2013-04-26 09:56:00,72.1,53.6,30.21,NNW,343,0.0,2.2,52,0.00,,---,0.00,VWS V14.01,2013-04-26 13:56:00,
2013-04-26 10:01:00,72.5,53.9,30.21,NNE,25,0.0,0.0,52,0.00,,---,0.00,VWS V14.01,2013-04-26 14:01:00,
2013-04-26 10:06:00,73.0,54.4,30.21,SE,129,0.0,0.0,52,0.00,,---,0.00,VWS V14.01,2013-04-26 14:06:00,
2013-04-26 10:11:00,73.6,54.9,30.21,ENE,71,0.0,0.0,52,0.00,,---,0.00,VWS V14.01,2013-04-26 14:11:00,
2013-04-26 10:16:00,74.1,53.2,30.21,North,353,3.6,5.4,48,0.00,,---,0.00,VWS V14.01,2013-04-26 14:16:00,
2013-04-26 10:21:00,74.5,54.6,30.21,ENE,74,2.2,2.2,50,0.00,,---,0.00,VWS V14.01,2013-04-26 14:21:00,
2013-04-26 10:26:00,74.8,54.4,30.21,ENE,77,2.2,2.7,49,0.00,,---,0.00,VWS V14.01,2013-04-26 14:26:00,
2013-04-26 10:31:00,75.2,54.8,30.21,South,186,0.0,0.0,49,0.00,,---,0.00,VWS V14.01,2013-04-26 14:31:00,
2013-04-26 10:36:00,75.4,53.8,30.21,North,5,5.8,5.8,47,0.00,,---,0.00,VWS V14.01,2013-04-26 14:36:00,
2013-04-26 10:41:00,75.7,52.9,30.21,NE,45,0.0,2.7,45,0.00,,---,0.00,VWS V14.01,2013-04-26 14:41:00,
2013-04-26 10:46:00,76.3,54.0,30.24,North,353,2.2,2.7,46,0.00,,---,0.00,VWS V14.01,2013-04-26 14:46:00,
2013-04-26 10:51:00,76.6,53.7,30.24,East,92,2.7,2.7,45,0.00,,---,0.00,VWS V14.01,2013-04-26 14:51:00,
2013-04-26 10:56:00,76.8,52.7,30.24,NNE,19,8.1,8.1,43,0.00,,---,0.00,VWS V14.01,2013-04-26 14:56:00,
2013-04-26 11:01:00,77.0,52.8,30.24,WSW,251,2.7,4.9,43,0.00,,---,0.00,VWS V14.01,2013-04-26 15:01:00,
2013-04-26 11:06:00,77.0,52.2,30.24,NE,49,0.0,0.0,42,0.00,,---,0.00,VWS V14.01,2013-04-26 15:06:00,
2013-04-26 11:11:00,77.5,53.3,30.24,West,263,2.7,2.7,43,0.00,,---,0.00,VWS V14.01,2013-04-26 15:11:00,
2013-04-26 11:16:00,77.7,52.8,30.24,North,9,2.7,2.7,42,0.00,,---,0.00,VWS V14.01,2013-04-26 15:16:00,
2013-04-26 11:21:00,77.9,53.0,30.24,NE,54,2.7,4.0,42,0.00,,---,0.00,VWS V14.01,2013-04-26 15:21:00,
2013-04-26 11:26:00,78.1,52.5,30.24,NW,326,2.2,4.0,41,0.00,,---,0.00,VWS V14.01,2013-04-26 15:26:00,
2013-04-26 11:31:00,78.4,52.8,30.24,East,83,0.0,2.7,41,0.00,,---,0.00,VWS V14.01,2013-04-26 15:31:00,
2013-04-26 11:36:00,78.6,53.0,30.24,NE,48,0.0,0.0,41,0.00,,---,0.00,VWS V14.01,2013-04-26 15:36:00,
2013-04-26 11:41:00,79.0,53.3,30.24,East,88,4.0,5.4,41,0.00,,---,0.00,VWS V14.01,2013-04-26 15:41:00,
2013-04-26 11:46:00,79.2,53.5,30.24,NE,46,0.0,2.2,41,0.00,,---,0.00,VWS V14.01,2013-04-26 15:46:00,
2013-04-26 11:51:00,79.3,53.6,30.24,NNE,28,5.4,5.8,41,0.00,,---,0.00,VWS V14.01,2013-04-26 15:51:00,
2013-04-26 11:56:00,79.5,53.8,30.24,NW,307,4.9,5.4,41,0.00,,---,0.00,VWS V14.01,2013-04-26 15:56:00,
2013-04-26 12:01:00,79.2,53.5,30.24,ESE,106,2.2,2.7,41,0.00,,---,0.00,VWS V14.01,2013-04-26 16:01:00,
2013-04-26 12:06:00,79.2,53.5,30.24,NNE,14,4.5,4.5,41,0.00,,---,0.00,VWS V14.01,2013-04-26 16:06:00,
2013-04-26 12:11:00,79.2,53.5,30.24,East,99,0.0,0.0,41,0.00,,---,0.00,VWS V14.01,2013-04-26 16:11:00,
2013-04-26 12:16:00,79.2,53.5,30.24,NNE,19,2.2,2.7,41,0.00,,---,0.00,VWS V14.01,2013-04-26 16:16:00,
2013-04-26 12:21:00,80.1,54.3,30.24,ESE,116,2.2,3.1,41,0.00,,---,0.00,VWS V14.01,2013-04-26 16:21:00,
2013-04-26 12:26:00,80.8,54.2,30.24,NE,49,2.7,3.6,40,0.00,,---,0.00,VWS V14.01,2013-04-26 16:26:00,
2013-04-26 12:31:00,81.1,54.5,30.24,NNE,32,4.9,4.9,40,0.00,,---,0.00,VWS V14.01,2013-04-26 16:31:00,
2013-04-26 12:36:00,80.6,54.1,30.24,ESE,115,0.0,0.0,40,0.00,,---,0.00,VWS V14.01,2013-04-26 16:36:00,
2013-04-26 12:41:00,80.4,53.9,30.24,ENE,69,0.0,3.6,40,0.00,,---,0.00,VWS V14.01,2013-04-26 16:41:00,
2013-04-26 12:46:00,80.4,53.9,30.24,NE,53,2.7,3.6,40,0.00,,---,0.00,VWS V14.01,2013-04-26 16:46:00,
2013-04-26 12:51:00,80.4,53.9,30.24,NE,38,0.0,4.0,40,0.00,,---,0.00,VWS V14.01,2013-04-26 16:51:00,
2013-04-26 12:56:00,80.4,53.9,30.24,ENE,66,4.0,4.0,40,0.00,,---,0.00,VWS V14.01,2013-04-26 16:56:00,
2013-04-26 13:01:00,81.3,54.7,30.24,East,100,8.3,8.3,40,0.00,,---,0.00,VWS V14.01,2013-04-26 17:01:00,
2013-04-26 13:06:00,81.1,54.5,30.24,NE,38,3.1,4.9,40,0.00,,---,0.00,VWS V14.01,2013-04-26 17:06:00,
2013-04-26 13:11:00,80.4,53.9,30.24,ESE,105,2.7,2.7,40,0.00,,---,0.00,VWS V14.01,2013-04-26 17:11:00,
2013-04-26 13:16:00,80.2,53.8,30.21,NNW,342,3.1,3.1,40,0.00,,---,0.00,VWS V14.01,2013-04-26 17:16:00,
2013-04-26 13:21:00,80.4,53.9,30.21,North,353,2.7,2.7,40,0.00,,---,0.00,VWS V14.01,2013-04-26 17:21:00,
2013-04-26 13:26:00,80.2,53.8,30.21,NNE,17,4.9,4.9,40,0.00,,---,0.00,VWS V14.01,2013-04-26 17:26:00,
2013-04-26 13:31:00,80.2,53.8,30.24,SSE,158,0.0,0.0,40,0.00,,---,0.00,VWS V14.01,2013-04-26 17:31:00,
2013-04-26 13:36:00,81.1,54.5,30.24,ENE,71,4.0,4.0,40,0.00,,---,0.00,VWS V14.01,2013-04-26 17:36:00,
2013-04-26 13:41:00,81.5,54.9,30.24,NW,307,3.1,3.1,40,0.00,,---,0.00,VWS V14.01,2013-04-26 17:41:00,
2013-04-26 13:46:00,82.2,55.5,30.21,North,6,2.2,3.1,40,0.00,,---,0.00,VWS V14.01,2013-04-26 17:46:00,
2013-04-26 13:51:00,82.2,55.5,30.21,NW,310,2.7,2.7,40,0.00,,---,0.00,VWS V14.01,2013-04-26 17:51:00,
2013-04-26 13:56:00,81.7,55.0,30.21,NE,38,3.6,3.6,40,0.00,,---,0.00,VWS V14.01,2013-04-26 17:56:00,
2013-04-26 14:01:00,81.3,54.0,30.21,East,83,4.9,4.9,39,0.00,,---,0.00,VWS V14.01,2013-04-26 18:01:00,
2013-04-26 14:06:00,81.1,54.5,30.21,NE,56,2.7,2.7,40,0.00,,---,0.00,VWS V14.01,2013-04-26 18:06:00,
2013-04-26 14:11:00,80.8,53.5,30.21,ENE,74,3.6,6.3,39,0.00,,---,0.00,VWS V14.01,2013-04-26 18:11:00,
2013-04-26 14:16:00,81.3,54.7,30.24,South,179,0.0,5.8,40,0.00,,---,0.00,VWS V14.01,2013-04-26 18:16:00,
2013-04-26 14:21:00,82.4,55.0,30.24,North,353,8.7,8.7,39,0.00,,---,0.00,VWS V14.01,2013-04-26 18:21:00,
2013-04-26 14:26:00,82.0,54.7,30.24,NNW,332,2.7,4.0,39,0.00,,---,0.00,VWS V14.01,2013-04-26 18:26:00,
2013-04-26 14:31:00,81.9,54.5,30.21,East,87,6.3,6.3,39,0.00,,---,0.00,VWS V14.01,2013-04-26 18:31:00,
2013-04-26 14:36:00,82.0,54.7,30.21,NE,37,0.0,3.6,39,0.00,,---,0.00,VWS V14.01,2013-04-26 18:36:00,
2013-04-26 14:41:00,82.4,55.0,30.21,NE,39,5.4,5.4,39,0.00,,---,0.00,VWS V14.01,2013-04-26 18:41:00,
2013-04-26 14:46:00,82.9,55.5,30.21,East,90,0.0,0.0,39,0.00,,---,0.00,VWS V14.01,2013-04-26 18:46:00,
2013-04-26 14:51:00,83.7,56.1,30.21,SW,219,0.0,0.0,39,0.00,,---,0.00,VWS V14.01,2013-04-26 18:51:00,
2013-04-26 14:56:00,83.8,56.3,30.21,ESE,113,0.0,0.0,39,0.00,,---,0.00,VWS V14.01,2013-04-26 18:56:00,
2013-04-26 15:01:00,84.2,54.4,30.21,SW,229,0.0,4.0,36,0.00,,---,0.00,VWS V14.01,2013-04-26 19:01:00,
2013-04-26 15:06:00,84.2,54.4,30.21,NE,38,2.2,6.3,36,0.00,,---,0.00,VWS V14.01,2013-04-26 19:06:00,
2013-04-26 15:11:00,82.9,53.3,30.21,SE,140,2.7,5.4,36,0.00,,---,0.00,VWS V14.01,2013-04-26 19:11:00,
2013-04-26 15:16:00,82.6,53.0,30.21,NE,47,5.8,5.8,36,0.00,,---,0.00,VWS V14.01,2013-04-26 19:16:00,
2013-04-26 15:21:00,82.9,53.3,30.21,ESE,122,3.1,3.1,36,0.00,,---,0.00,VWS V14.01,2013-04-26 19:21:00,
2013-04-26 15:26:00,82.8,53.1,30.21,NE,51,5.4,5.4,36,0.00,,---,0.00,VWS V14.01,2013-04-26 19:26:00,
2013-04-26 15:31:00,82.2,53.4,30.21,ESE,116,2.2,2.2,37,0.00,,---,0.00,VWS V14.01,2013-04-26 19:31:00,
2013-04-26 15:36:00,82.2,53.4,30.21,WNW,285,2.2,2.2,37,0.00,,---,0.00,VWS V14.01,2013-04-26 19:36:00,
2013-04-26 15:41:00,82.8,53.1,30.21,NE,56,3.1,3.1,36,0.00,,---,0.00,VWS V14.01,2013-04-26 19:41:00,
2013-04-26 15:46:00,82.9,53.3,30.21,NNW,327,4.9,6.3,36,0.00,,---,0.00,VWS V14.01,2013-04-26 19:46:00,
2013-04-26 15:51:00,83.1,53.4,30.21,NNE,26,3.1,3.1,36,0.00,,---,0.00,VWS V14.01,2013-04-26 19:51:00,
2013-04-26 15:56:00,83.1,53.4,30.21,NNE,23,4.9,4.9,36,0.00,,---,0.00,VWS V14.01,2013-04-26 19:56:00,
2013-04-26 16:01:00,83.3,53.6,30.21,North,0,0.0,3.1,36,0.00,,---,0.00,VWS V14.01,2013-04-26 20:01:00,
2013-04-26 16:06:00,83.5,53.8,30.21,East,82,3.6,4.0,36,0.00,,---,0.00,VWS V14.01,2013-04-26 20:06:00,
2013-04-26 16:11:00,83.5,53.8,30.21,NNE,19,3.6,3.6,36,0.00,,---,0.00,VWS V14.01,2013-04-26 20:11:00,
2013-04-26 16:16:00,83.3,53.6,30.21,East,87,0.0,0.0,36,0.00,,---,0.00,VWS V14.01,2013-04-26 20:16:00,
2013-04-26 16:21:00,83.1,53.4,30.21,SSE,147,0.0,2.7,36,0.00,,---,0.00,VWS V14.01,2013-04-26 20:21:00,
2013-04-26 16:26:00,82.8,53.1,30.21,NE,56,5.4,5.4,36,0.00,,---,0.00,VWS V14.01,2013-04-26 20:26:00,
2013-04-26 16:31:00,81.9,53.1,30.21,NNE,22,4.0,4.0,37,0.00,,---,0.00,VWS V14.01,2013-04-26 20:31:00,
2013-04-26 16:36:00,81.3,52.6,30.21,NNE,29,3.6,5.8,37,0.00,,---,0.00,VWS V14.01,2013-04-26 20:36:00,
2013-04-26 16:41:00,81.7,52.9,30.21,NE,52,2.7,4.9,37,0.00,,---,0.00,VWS V14.01,2013-04-26 20:41:00,
2013-04-26 16:46:00,82.2,53.4,30.21,ENE,60,4.0,4.0,37,0.00,,---,0.00,VWS V14.01,2013-04-26 20:46:00,
2013-04-26 16:51:00,82.4,52.8,30.21,NW,322,0.0,0.0,36,0.00,,---,0.00,VWS V14.01,2013-04-26 20:51:00,
2013-04-26 16:56:00,82.2,53.4,30.21,NE,48,3.1,5.4,37,0.00,,---,0.00,VWS V14.01,2013-04-26 20:56:00,
2013-04-26 17:01:00,82.0,53.2,30.21,NNE,27,3.1,3.6,37,0.00,,---,0.00,VWS V14.01,2013-04-26 21:01:00,
2013-04-26 17:06:00,82.0,53.2,30.21,ENE,59,4.0,4.0,37,0.00,,---,0.00,VWS V14.01,2013-04-26 21:06:00,
2013-04-26 17:11:00,82.2,53.4,30.21,ENE,62,3.1,3.1,37,0.00,,---,0.00,VWS V14.01,2013-04-26 21:11:00,
2013-04-26 17:16:00,82.4,52.8,30.21,East,94,0.0,0.0,36,0.00,,---,0.00,VWS V14.01,2013-04-26 21:16:00,
2013-04-26 17:21:00,82.4,52.8,30.21,East,96,4.0,7.6,36,0.00,,---,0.00,VWS V14.01,2013-04-26 21:21:00,
2013-04-26 17:26:00,82.2,53.4,30.21,NE,47,4.9,6.3,37,0.00,,---,0.00,VWS V14.01,2013-04-26 21:26:00,
2013-04-26 17:31:00,82.0,53.2,30.21,NE,54,2.2,3.1,37,0.00,,---,0.00,VWS V14.01,2013-04-26 21:31:00,
2013-04-26 17:36:00,81.0,52.3,30.21,NE,49,3.1,3.1,37,0.00,,---,0.00,VWS V14.01,2013-04-26 21:36:00,
2013-04-26 17:41:00,80.4,51.8,30.21,ENE,59,3.1,3.1,37,0.00,,---,0.00,VWS V14.01,2013-04-26 21:41:00,
2013-04-26 17:46:00,80.4,51.8,30.21,ENE,74,2.2,2.2,37,0.00,,---,0.00,VWS V14.01,2013-04-26 21:46:00,
2013-04-26 17:51:00,80.4,53.9,30.21,ENE,70,3.1,3.6,40,0.00,,---,0.00,VWS V14.01,2013-04-26 21:51:00,
2013-04-26 17:56:00,80.4,53.9,30.21,NE,44,5.4,5.4,40,0.00,,---,0.00,VWS V14.01,2013-04-26 21:56:00,
2013-04-26 18:01:00,80.4,53.9,30.24,South,185,0.0,2.7,40,0.00,,---,0.00,VWS V14.01,2013-04-26 22:01:00,
2013-04-26 18:06:00,80.4,53.9,30.24,East,87,4.0,5.4,40,0.00,,---,0.00,VWS V14.01,2013-04-26 22:06:00,
2013-04-26 18:11:00,80.1,53.6,30.24,ENE,64,0.0,0.0,40,0.00,,---,0.00,VWS V14.01,2013-04-26 22:11:00,
2013-04-26 18:16:00,79.5,53.1,30.21,North,5,3.1,5.8,40,0.00,,---,0.00,VWS V14.01,2013-04-26 22:16:00,
2013-04-26 18:21:00,79.0,52.6,30.21,ESE,114,2.2,3.6,40,0.00,,---,0.00,VWS V14.01,2013-04-26 22:21:00,
2013-04-26 18:26:00,78.4,52.1,30.21,NE,46,0.0,2.2,40,0.00,,---,0.00,VWS V14.01,2013-04-26 22:26:00,
2013-04-26 18:31:00,77.7,51.5,30.21,North,6,2.2,2.2,40,0.00,,---,0.00,VWS V14.01,2013-04-26 22:31:00,
2013-04-26 18:36:00,77.4,51.2,30.21,ENE,69,2.7,2.7,40,0.00,,---,0.00,VWS V14.01,2013-04-26 22:36:00,
2013-04-26 18:41:00,77.2,51.0,30.21,NNW,333,0.0,0.0,40,0.00,,---,0.00,VWS V14.01,2013-04-26 22:41:00,
2013-04-26 18:45:00,77.4,51.2,30.21,ENE,72,0.0,0.0,40,0.00,,---,0.00,VWS V14.01,2013-04-26 22:45:00,
2013-04-26 18:50:00,77.5,52.0,30.21,ENE,69,2.2,5.4,41,0.00,,---,0.00,VWS V14.01,2013-04-26 22:50:00,
2013-04-26 18:55:00,77.7,52.2,30.21,NE,46,3.6,5.4,41,0.00,,---,0.00,VWS V14.01,2013-04-26 22:55:00,
2013-04-26 19:00:00,77.4,51.8,30.21,ENE,73,2.7,3.6,41,0.00,,---,0.00,VWS V14.01,2013-04-26 23:00:00,
2013-04-26 19:05:00,77.0,51.5,30.21,East,93,4.9,4.9,41,0.00,,---,0.00,VWS V14.01,2013-04-26 23:05:00,
2013-04-26 19:10:00,76.5,51.0,30.21,SE,143,3.1,3.1,41,0.00,,---,0.00,VWS V14.01,2013-04-26 23:10:00,
2013-04-26 19:15:00,76.1,50.7,30.24,West,278,0.0,0.0,41,0.00,,---,0.00,VWS V14.01,2013-04-26 23:15:00,
2013-04-26 19:20:00,75.9,51.2,30.24,ENE,63,4.0,4.0,42,0.00,,---,0.00,VWS V14.01,2013-04-26 23:20:00,
2013-04-26 19:26:00,75.7,51.0,30.24,NNW,338,2.2,2.2,42,0.00,,---,0.00,VWS V14.01,2013-04-26 23:26:00,
2013-04-26 19:30:00,75.4,50.7,30.21,East,97,0.0,0.0,42,0.00,,---,0.00,VWS V14.01,2013-04-26 23:30:00,
2013-04-26 19:35:00,75.2,50.6,30.21,East,99,2.7,2.7,42,0.00,,---,0.00,VWS V14.01,2013-04-26 23:35:00,
2013-04-26 19:40:00,75.0,51.0,30.21,NE,41,2.2,2.7,43,0.00,,---,0.00,VWS V14.01,2013-04-26 23:40:00,
2013-04-26 19:45:00,74.8,50.9,30.24,WNW,303,0.0,3.1,43,0.00,,---,0.00,VWS V14.01,2013-04-26 23:45:00,
2013-04-26 19:50:00,74.5,50.5,30.24,ESE,104,2.7,4.0,43,0.00,,---,0.00,VWS V14.01,2013-04-26 23:50:00,
2013-04-26 20:05:00,73.6,49.7,30.24,ENE,69,0.0,0.0,43,0.00,,---,0.00,VWS V14.01,2013-04-27 00:05:00,
2013-04-26 20:10:00,73.4,50.8,30.24,NE,47,0.0,2.7,45,0.00,,---,0.00,VWS V14.01,2013-04-27 00:10:00,
2013-04-26 20:15:00,73.2,50.6,30.24,ENE,73,2.2,3.1,45,0.00,,---,0.00,VWS V14.01,2013-04-27 00:15:00,
2013-04-26 20:20:00,72.9,50.3,30.24,ENE,69,0.0,0.0,45,0.00,,---,0.00,VWS V14.01,2013-04-27 00:20:00,
2013-04-26 20:25:00,72.7,50.7,30.24,ENE,64,0.0,0.0,46,0.00,,---,0.00,VWS V14.01,2013-04-27 00:25:00,
2013-04-26 20:30:00,72.3,49.8,30.24,NE,38,0.0,0.0,45,0.00,,---,0.00,VWS V14.01,2013-04-27 00:30:00,
2013-04-26 20:35:00,72.3,49.8,30.24,NNE,33,0.0,2.7,45,0.00,,---,0.00,VWS V14.01,2013-04-27 00:35:00,
2013-04-26 20:40:00,72.1,50.2,30.24,NNE,25,0.0,0.0,46,0.00,,---,0.00,VWS V14.01,2013-04-27 00:40:00,
2013-04-26 20:45:00,71.8,49.9,30.24,NE,42,2.2,2.2,46,0.00,,---,0.00,VWS V14.01,2013-04-27 00:45:00,
2013-04-26 20:50:00,71.6,49.8,30.24,ENE,59,0.0,0.0,46,0.00,,---,0.00,VWS V14.01,2013-04-27 00:50:00,
2013-04-26 20:55:00,71.4,49.6,30.24,North,8,0.0,0.0,46,0.00,,---,0.00,VWS V14.01,2013-04-27 00:55:00,
2013-04-26 21:00:00,71.2,50.0,30.27,North,353,4.9,4.9,47,0.00,,---,0.00,VWS V14.01,2013-04-27 01:00:00,
2013-04-26 21:05:00,70.9,49.1,30.27,NNE,26,0.0,0.0,46,0.00,,---,0.00,VWS V14.01,2013-04-27 01:05:00,
2013-04-26 21:10:00,70.7,48.9,30.27,NE,43,0.0,0.0,46,0.00,,---,0.00,VWS V14.01,2013-04-27 01:10:00,
2013-04-26 21:15:00,70.5,49.3,30.27,NNW,331,0.0,0.0,47,0.00,,---,0.00,VWS V14.01,2013-04-27 01:15:00,
2013-04-26 21:20:00,70.3,49.2,30.27,North,357,0.0,0.0,47,0.00,,---,0.00,VWS V14.01,2013-04-27 01:20:00,
2013-04-26 21:25:00,70.2,49.0,30.27,North,0,0.0,0.0,47,0.00,,---,0.00,VWS V14.01,2013-04-27 01:25:00,
2013-04-26 21:30:00,70.0,49.4,30.27,North,4,0.0,0.0,48,0.00,,---,0.00,VWS V14.01,2013-04-27 01:30:00,
2013-04-26 21:35:00,69.8,48.7,30.27,NNE,22,0.0,0.0,47,0.00,,---,0.00,VWS V14.01,2013-04-27 01:35:00,
2013-04-26 21:40:00,69.4,48.3,30.27,WSW,251,0.0,0.0,47,0.00,,---,0.00,VWS V14.01,2013-04-27 01:40:00,
2013-04-26 21:45:00,69.3,48.8,30.27,NE,47,0.0,0.0,48,0.00,,---,0.00,VWS V14.01,2013-04-27 01:45:00,
2013-04-26 21:50:00,69.1,48.6,30.27,ENE,57,0.0,2.7,48,0.00,,---,0.00,VWS V14.01,2013-04-27 01:50:00,
2013-04-26 21:55:00,68.9,48.4,30.27,NNE,17,0.0,2.7,48,0.00,,---,0.00,VWS V14.01,2013-04-27 01:55:00,
2013-04-26 22:00:00,68.7,48.3,30.27,NE,54,0.0,3.1,48,0.00,,---,0.00,VWS V14.01,2013-04-27 02:00:00,
2013-04-26 22:05:00,68.7,48.8,30.27,NNE,17,3.1,3.1,49,0.00,,---,0.00,VWS V14.01,2013-04-27 02:05:00,
2013-04-26 22:10:00,68.5,48.1,30.27,East,90,0.0,0.0,48,0.00,,---,0.00,VWS V14.01,2013-04-27 02:10:00,
2013-04-26 22:15:00,68.4,48.5,30.27,NNW,339,0.0,0.0,49,0.00,,---,0.00,VWS V14.01,2013-04-27 02:15:00,
2013-04-26 22:20:00,68.2,48.3,30.27,NNE,24,0.0,0.0,49,0.00,,---,0.00,VWS V14.01,2013-04-27 02:20:00,
2013-04-26 22:25:00,68.0,48.7,30.27,North,11,0.0,0.0,50,0.00,,---,0.00,VWS V14.01,2013-04-27 02:25:00,
2013-04-26 22:30:00,67.8,48.5,30.27,NE,51,0.0,0.0,50,0.00,,---,0.00,VWS V14.01,2013-04-27 02:30:00,
2013-04-26 22:35:00,67.6,48.4,30.27,NNE,31,0.0,0.0,50,0.00,,---,0.00,VWS V14.01,2013-04-27 02:35:00,
2013-04-26 22:40:00,67.5,48.2,30.27,NNE,31,0.0,0.0,50,0.00,,---,0.00,VWS V14.01,2013-04-27 02:40:00,
2013-04-26 22:45:00,67.3,48.5,30.27,NNE,21,0.0,0.0,51,0.00,,---,0.00,VWS V14.01,2013-04-27 02:45:00,
2013-04-26 22:50:00,67.1,48.4,30.27,East,80,0.0,0.0,51,0.00,,---,0.00,VWS V14.01,2013-04-27 02:50:00,
2013-04-26 22:55:00,66.9,48.2,30.27,East,79,0.0,0.0,51,0.00,,---,0.00,VWS V14.01,2013-04-27 02:55:00,
2013-04-26 23:00:00,66.7,48.1,30.27,NE,35,0.0,0.0,51,0.00,,---,0.00,VWS V14.01,2013-04-27 03:00:00,
2013-04-26 23:05:00,66.6,47.9,30.27,NE,53,0.0,0.0,51,0.00,,---,0.00,VWS V14.01,2013-04-27 03:05:00,
2013-04-26 23:10:00,66.6,47.9,30.27,SE,125,0.0,0.0,51,0.00,,---,0.00,VWS V14.01,2013-04-27 03:10:00,
2013-04-26 23:15:00,66.4,48.2,30.27,NNE,30,0.0,0.0,52,0.00,,---,0.00,VWS V14.01,2013-04-27 03:15:00,
2013-04-26 23:20:00,66.2,48.1,30.27,NE,38,0.0,0.0,52,0.00,,---,0.00,VWS V14.01,2013-04-27 03:20:00,
2013-04-26 23:25:00,66.0,48.4,30.27,ENE,64,2.2,2.7,53,0.00,,---,0.00,VWS V14.01,2013-04-27 03:25:00,
2013-04-26 23:30:00,66.0,48.4,30.27,ENE,64,0.0,0.0,53,0.00,,---,0.00,VWS V14.01,2013-04-27 03:30:00,
2013-04-26 23:35:00,65.8,48.2,30.27,NNW,335,0.0,0.0,53,0.00,,---,0.00,VWS V14.01,2013-04-27 03:35:00,
2013-04-26 23:40:00,65.7,48.1,30.27,NE,51,0.0,0.0,53,0.00,,---,0.00,VWS V14.01,2013-04-27 03:40:00,
2013-04-26 23:45:00,65.5,47.9,30.27,NE,39,0.0,0.0,53,0.00,,---,0.00,VWS V14.01,2013-04-27 03:45:00,
2013-04-26 23:50:00,65.3,47.8,30.27,NE,39,0.0,0.0,53,0.00,,---,0.00,VWS V14.01,2013-04-27 03:50:00,
2013-04-26 23:55:00,65.1,47.6,30.27,NNE,15,0.0,0.0,53,0.00,,---,0.00,VWS V14.01,2013-04-27 03:55:00,